Regional Weather Roundup
Issued by NWS Charleston, SC

Current Version | Previous Version | Graphics & Text | Print | Product List | Glossary On
Versions: 1 2 3 4 5 6 7 8 9 10 11 12 13 14 15 16 17 18 19 20 21 22 23 24 25 26 27 28 29 30 31 32 33 34 35 36 37 38 39 40 41 42 43 44 45 46 47 48 49 50
000
ASUS42 KCHS 221527
RWRCHS

REGIONAL WEATHER ROUNDUP
NATIONAL WEATHER SERVICE CHARLESTON SC
1000 AM EST SUN JAN 22 2017

NOTE: "FAIR" INDICATES FEW OR NO CLOUDS BELOW 12,000 FEET WITH NO
SIGNIFICANT WEATHER AND/OR OBSTRUCTIONS TO VISIBILITY.

NOT ALL STATIONS ARE QUALITY CONTROLLED. USE DATA WITH CAUTION...
ESPECIALLY DEWPOINT OBSERVATIONS.

SCZ027-030-031-034>040-042>050-221600-
...SOUTHEAST SOUTH CAROLINA...

CITY           SKY/WX    TMP DP  RH WIND       PRES   REMARKS
N CHARLESTON   RAIN      61  60  97 SE8       29.67F FOG
WATERFRONT PRK   N/A     60  60 100 CALM      29.69S
MOUNT PLEASANT RAIN      61  61 100 CALM      29.69F
JOHNS ISLAND   RAIN      63  63 100 CALM      29.67F
PINOPOLIS        N/A     57  57 100 E6        29.55
MONCKS CORNER  LGT RAIN  59  57  94 SE6       29.66R
SUMMERVILLE    TSTM     N/A N/A N/A SE5       29.67R
BEAUFORT MCAS  RAIN      61  60  97 SE5       29.68S FOG
BEAUFORT ARPT  RAIN      61  59  94 CALM      29.66F
HILTON HEAD IS TSTM      61  61 100 S9        29.69R
WALTERBORO     CLOUDY    61  59  94 E7        29.64F
ALLENDALE      CLOUDY    61  61 100 CALM      29.61F

...SOUTHERN MIDLANDS AND PEE DEE...

CITY           SKY/WX    TMP DP  RH WIND       PRES   REMARKS
GEORGETOWN     CLOUDY    61  59  94 E8        29.65F
KINGSTREE      PTSUNNY   59  57  94 CALM      29.66R
ORANGEBURG     CLOUDY    61  59  93 SE8       29.65R
BARNWELL       CLOUDY    63  61  94 SE8G15    29.63F
AIKEN          CLOUDY    61  57  88 SE14      29.65S
MANNING        FAIR      59  55  88 CALM      29.64R
COLUMBIA       CLOUDY    62  58  86 SE8       29.62R
SUMTER         CLOUDY    61  59  94 S14       29.60F
FLORENCE       PTSUNNY   60  60 100 SE5       29.61F FOG
MYRTLE BEACH   NOT AVBL
N MYRTLE BEACH LGT RAIN  59  59 100 N3        29.69R FOG

$$

GAZ063-065-086>088-099>101-113>116-118-119-134>141-150-221600-
...SOUTHEAST GEORGIA...

CITY           SKY/WX    TMP DP  RH WIND       PRES   REMARKS
SAVANNAH ARPT  TSTM      61  59  93 SE9       29.63F FOG
HUNTER AAF     CLOUDY    61  61 100 SE9       29.60F
FORT STEWART   TSTM      61  61 100 SE6       29.61F
STATESBORO     CLOUDY    62  32  32 CALM      29.61S
SYLVANIA       CLOUDY   N/A N/A N/A E3        29.62S
CLAXTON        CLOUDY   N/A N/A N/A CALM      29.62R

...CSRA...CENTRAL AND FAR SOUTHEAST GEORGIA...

CITY           SKY/WX    TMP DP  RH WIND       PRES   REMARKS
THOMSON        CLOUDY    64  62  94 SE9       29.65R
AUGUSTA-BUSH   CLOUDY    64  59  83 SE7       29.62R
AUGUSTA-DANIEL CLOUDY    62  56  80 SE12      29.63R
SWAINSBORO     CLOUDY    63  61  94 MISG      29.60F
VIDALIA        LGT RAIN  63  63 100 SE3       29.58F
EASTMAN        CLOUDY    64  64 100 CALM      29.58F
HAZLEHURST     PTSUNNY   64  64 100 CALM      29.57S
ALMA           LGT RAIN  62  62 100 S8        29.59F
WAYCROSS       CLOUDY    65  65 100 S7        29.61S
JESUP          RAIN      63  61  94 CALM      29.64F
BAXLEY         NOT AVBL
BRUNSWICK      TSTM      64  64 100 SW6       29.68F
SAINT SIMONS   TSTM      63  62  97 VRB3      29.67R FOG

$$

SCZ027-028-034-036>038-045-046-048>050-GAZ119-141-221600-
...LAKE AND SUPPLEMENTAL COASTAL OBSERVATIONS...

STATION/POSITION TIME  TEMP    WIND        PRES    WAVE   SWELL
                       AIR SEA DIR/SP/G            HT/PER HT/PER/DIR
                 (UTC) (F)     (DEG/KT/KT) (MB)    (FT/S) (FT/S/D)
WINYAH BAY       1430   60     350/  3     1005.0R
LAKE MURRAY      1450   59     150/  6/  8 1002.7R
ACE BASIN NERRS  1445   60        CALM     1006.0R
FORT PULASKI     1500   61 59  170/  6/  9 1005.1
SAPELO ISLAND    1500   62     290/  6     1005.0

$$

ANZ835-935-AMZ111-154-330-350-352-354-370-450-454-472-221600-
...C-MAN AND BUOY OBSERVATIONS...

STATION/POSITION TIME  TEMP    WIND        PRES    WAVE   SWELL
                       AIR SEA DIR/SP/G            HT/PER HT/PER/DIR
                 (UTC) (F)     (DEG/KT/KT) (MB)    (FT/S) (FT/S/D)
BUOY 41004       1450   64 68   20/  4/  6 1004.6R   4/ 6   3/170/ 6
BUOY 41008       1450   63 60  320/ 14/ 17 1004.6R   4/ 6   2/ 70/11
FOLLY BEACH CMAN 1500   60        CALM     1006.3R
CAPERS NEARSHORE 1408   59 56  340/  6/ 12 1004.8R
FRIPP NEARSHORE  1508   60 59  200/  8/ 12 1005.0F


STATION/POSITION TIME  TEMP    WIND        PRES    WAVE   SWELL
                       AIR SEA DIR/SP/G            HT/PER HT/PER/DIR
                 (UTC) (F)     (DEG/KT/KT) (MB)    (FT/S) (FT/S/D)
5E ST. MARYS GA  1500      63                N/A     3/ 5   2/100/11
FRYING PAN BUOY  1510   62 68  330/ 10/ 16 1004.9
BUOY 41025       1450   65 73  250/ 21/ 25 1005.3R   6/ 7   3/120/12
CAPE LOOKOUT NC  1500   59     230/  5/  6 1004.9F
BUOY 41002       1450   72 71  200/ 16/ 19 1008.6R   7/ 7   3/ 30/13
BUOY 41010       NOT AVBL
ST AUGUSTINE FL  1500   75 65  200/ 16/ 19 1004.3F


$$



USA.gov is the U.S. government's official web portal to all federal, state and local government web resources and services.